Tri-Cities, TN

6:02 AM EDT on October 17, 2017 (GMT -0400)
Tri-Cities Regional Tennessee / Virginia

Weather History for KTRI - February, 2014

Change the Weather History Date:

Saturday, February 8, 2014

  Actual Average Record
Temperature  
Mean Temperature 34 °F 37 °F  
Max Temperature 40 °F 48 °F 70 °F (2001)
Min Temperature 27 °F 27 °F 6 °F (1984)
Degree Days  
Heating Degree Days 31 28  
Month to date heating degree days 216 226  
Since 1 July heating degree days 2970 2880  
Cooling Degree Days 0 0  
Month to date cooling degree days 0 0  
Year to date cooling degree days 0 0  
Moisture  
Dew Point 26 °F    
Average Humidity 68    
Maximum Humidity 81    
Minimum Humidity 54    
Precipitation  
Precipitation T in 0.13 in 0.62 in (2017)
Month to date precipitation 1.50 1.00  
Year to date precipitation 3.30 4.37  
Snow  
Snow T in 0.20 in - ()
Month to date snowfall T 1.1  
Since 1 July snowfall 6.0 8.5  
Snow Depth 0.00 in    
Sea Level Pressure  
Sea Level Pressure 30.18 in    
Wind  
Wind Speed 1 mph (West)    
Max Wind Speed 7 mph    
Max Gust Speed 8 mph    
Visibility 9 miles    
Events Snow    
T = Trace of Precipitation, MM = Missing Value Source: NWS Daily Summary

Daily Weather History Graph

Daily Weather History Graph

Search for Another Location

Airport or City:

Trip Planner

Search our weather history database for the weather conditions in past years. The results will help you decide how hot, cold, wet, or windy it might be!

Date:

Astronomy

Feb. 08, 2014 Rise Set
Actual Time 7:24 AM EST 6:03 PM EST
Civil Twilight 6:58 AM EST 6:29 PM EST
Nautical Twilight 6:27 AM EST 7:00 PM EST
Astronomical Twilight 5:57 AM EST 7:30 PM EST
Moon 12:58 PM EST (2/8) 2:34 AM EST (2/8)
Length of Visible Light 11h 31m
Length of Day
10h 38m
Waxing Gibbous, 68% of the Moon is Illuminated
Feb 8
Waxing Gibbous
Feb 14
Full
Feb 22
Last Quarter
Mar 1
New
Mar 8
First Quarter

Hourly Weather History & Observations

Time (EST) Temp. Windchill Dew Point Humidity Pressure Visibility Wind Dir Wind Speed Gust Speed Precip Events Conditions
12:53 AM 28.9 °F - 21.9 °F 75% 30.23 in 9.0 mi Calm Calm - N/A   Overcast
1:53 AM 30.0 °F - 23.0 °F 75% 30.22 in 10.0 mi Calm Calm - N/A   Overcast
2:53 AM 30.9 °F - 24.1 °F 76% 30.23 in 9.0 mi Calm Calm - N/A   Overcast
3:53 AM 30.9 °F - 24.1 °F 76% 30.22 in 9.0 mi Calm Calm - N/A   Overcast
4:53 AM 30.0 °F - 24.1 °F 79% 30.21 in 8.0 mi Calm Calm - N/A   Overcast
5:53 AM 30.9 °F - 24.1 °F 76% 30.22 in 9.0 mi Calm Calm - N/A   Overcast
6:53 AM 30.9 °F - 24.1 °F 76% 30.22 in 8.0 mi Calm Calm - N/A   Overcast
7:53 AM 30.9 °F - 25.0 °F 79% 30.24 in 3.0 mi Calm Calm - 0.00 in Snow Light Snow
8:53 AM 32.0 °F - 26.1 °F 79% 30.24 in 8.0 mi Calm Calm - 0.00 in   Overcast
9:53 AM 34.0 °F - 25.0 °F 70% 30.25 in 8.0 mi Calm Calm - N/A   Overcast
10:53 AM 35.1 °F - 23.0 °F 61% 30.25 in 10.0 mi Calm Calm - N/A   Overcast
11:53 AM 36.0 °F - 23.0 °F 59% 30.22 in 10.0 mi Calm Calm - N/A   Overcast
12:53 PM 37.9 °F - 23.0 °F 55% 30.17 in 10.0 mi Calm Calm - N/A   Overcast
1:53 PM 39.0 °F - 24.1 °F 55% 30.14 in 10.0 mi Calm Calm - N/A   Overcast
2:12 PM 39.0 °F - 24.1 °F 55% 30.14 in 10.0 mi Calm Calm - N/A   Overcast
2:29 PM 39.0 °F - 24.1 °F 55% 30.14 in 10.0 mi Calm Calm - N/A   Overcast
2:53 PM 39.0 °F 34.8 °F 25.0 °F 57% 30.14 in 10.0 mi West 5.8 mph - N/A   Overcast
3:53 PM 39.9 °F 36.7 °F 26.1 °F 58% 30.14 in 10.0 mi WNW 4.6 mph - N/A   Overcast
4:53 PM 39.0 °F - 28.0 °F 65% 30.14 in 10.0 mi Calm Calm - 0.00 in   Overcast
5:53 PM 39.0 °F 35.7 °F 28.9 °F 67% 30.14 in 10.0 mi SW 4.6 mph - N/A   Mostly Cloudy
6:53 PM 37.9 °F - 28.9 °F 70% 30.14 in 10.0 mi Calm Calm - N/A   Overcast
7:53 PM 37.9 °F - 28.9 °F 70% 30.14 in 10.0 mi Calm Calm - N/A   Overcast
8:53 PM 37.0 °F - 30.0 °F 76% 30.15 in 10.0 mi Calm Calm - N/A   Overcast
9:53 PM 37.0 °F - 30.0 °F 76% 30.16 in 10.0 mi Calm Calm - N/A   Overcast
10:30 PM 37.0 °F - 30.0 °F 76% 30.17 in 10.0 mi Calm Calm - N/A   Overcast
10:53 PM 37.0 °F - 30.0 °F 76% 30.17 in 10.0 mi Calm Calm - N/A   Overcast
11:53 PM 37.0 °F - 30.0 °F 76% 30.16 in 10.0 mi Calm Calm - N/A   Overcast